Theta_e
337 335 336 337 338 338 336 333 331 326 322 322 322 322 320 316 315 315 312 324 327 333 334 332 330 328 327 325 323 323 323 322 321 321 321 321 322 324 325 327 330 332 334
337 335 334 334 336 334 331 327 323 321 321 321 320 318 316 315 314 310 309 308 322 327 332 332 332 330 329 327 325 325 325 324 323 320 321 320 321 321 323 325 328 330 332
336 334 332 330 330 327 324 322 321 321 320 320 316 316 315 311 310 308 308 308 311 321 328 332 333 331 330 329 328 326 326 326 326 324 322 321 321 320 320 322 326 328 330
337 333 332 329 328 326 323 321 320 319 318 316 314 314 311 309 307 308 309 309 309 311 317 329 332 331 331 330 329 327 327 327 326 325 324 324 323 320 319 320 321 325 328
338 334 331 330 328 325 322 321 319 319 317 314 314 312 308 306 305 309 305 307 306 308 309 317 324 329 330 329 329 328 326 324 325 323 322 324 324 321 321 319 320 322 326
338 333 332 328 327 325 321 321 318 317 315 312 312 309 305 303 305 304 303 305 306 306 306 308 309 312 323 325 326 325 323 322 320 320 321 322 321 321 320 319 319 321 325
337 332 330 328 326 323 321 321 318 314 311 306 303 302 303 303 302 302 302 302 304 305 304 306 307 309 308 317 319 320 320 321 321 319 318 318 320 321 320 320 318 319 321
334 333 330 327 326 323 318 312 312 308 306 304 301 298 296 299 300 301 301 303 301 302 303 304 304 305 306 306 311 318 319 320 319 318 317 319 320 321 321 320 319 318 319
335 333 332 327 326 320 312 309 308 306 303 303 303 301 294 292 294 300 301 300 301 299 300 301 303 303 305 306 309 310 317 317 318 319 318 317 318 320 321 321 320 318 317
334 333 329 325 319 313 311 309 308 305 304 302 301 303 300 298 294 293 298 300 301 301 299 300 300 301 303 303 309 314 314 314 315 316 317 318 318 319 320 320 319 318 317
331 332 328 322 313 311 308 307 307 306 303 302 300 299 297 297 296 294 292 296 300 301 301 300 300 300 302 302 302 307 313 313 312 312 313 315 315 316 317 318 319 318 316
326 326 322 317 311 309 309 308 307 305 304 302 300 299 299 297 296 294 295 297 301 301 301 302 300 301 300 301 308 314 313 313 313 311 310 310 311 313 315 317 318 318 318
322 318 314 310 308 308 308 307 306 304 303 302 301 301 300 300 304 302 302 302 299 301 298 298 300 300 303 302 303 312 313 313 312 312 310 309 310 311 312 314 316 316 317
324 317 312 310 311 310 308 306 305 305 304 303 303 302 302 303 307 306 304 302 300 298 294 296 298 301 303 300 304 311 305 311 311 311 310 309 309 309 310 312 312 313 313
325 314 312 309 309 309 309 307 305 305 304 303 303 302 301 307 307 308 308 305 302 297 296 296 296 302 301 300 304 305 305 309 310 311 310 309 309 309 309 309 310 311 311
319 312 310 309 308 308 307 305 304 304 303 304 304 303 302 307 309 309 307 307 303 299 293 296 297 300 302 302 304 305 304 308 309 309 308 308 308 309 308 308 308 309 310
310 309 309 309 308 308 307 305 305 305 304 304 303 303 306 308 307 306 306 302 297 297 299 298 298 301 299 299 301 301 303 303 304 307 307 308 308 308 308 308 308 309 309
310 310 310 310 310 309 307 306 305 306 305 304 303 306 307 307 305 302 299 297 296 298 296 297 297 295 297 301 300 298 301 303 302 304 307 307 306 307 307 308 309 309 310
311 311 311 310 309 308 306 306 306 304 303 303 306 306 306 304 299 298 298 297 297 299 297 296 297 298 298 300 299 297 298 299 302 306 305 305 304 305 305 307 307 308 308
311 310 310 310 310 308 309 307 306 304 303 304 307 307 306 299 298 298 298 298 299 298 298 296 297 297 299 299 299 297 295 297 298 301 301 301 302 304 305 306 307 308 309
312 311 311 309 309 309 309 307 305 302 302 305 306 304 302 305 308 306 304 302 300 299 298 297 296 297 297 297 296 297 296 296 296 296 292 295 298 299 301 305 307 309 310
311 311 309 308 308 310 307 307 308 303 303 302 298 299 299 302 302 304 304 304 303 300 298 297 297 296 296 298 298 297 295 293 292 294 291 294 298 298 301 304 309 307 306
307 307 308 309 308 305 305 303 304 301 298 294 296 295 294 298 300 298 298 299 298 300 301 298 295 295 295 298 298 296 295 293 293 295 292 293 298 299 303 305 307 306 305
305 308 306 304 303 303 301 300 299 294 293 292 292 294 293 296 297 295 294 294 294 296 297 298 297 297 298 298 298 298 296 295 295 293 293 292 298 299 302 304 307 305 304
303 303 303 302 296 294 297 297 295 292 292 293 295 296 297 295 296 295 294 292 293 294 298 299 299 299 298 298 299 298 295 293 292 294 297 297 298 298 300 302 305 305 303
303 303 299 296 297 292 296 296 294 292 293 293 293 295 295 294 295 295 293 293 291 293 294 295 295 297 298 299 299 299 297 293 293 293 298 293 297 298 294 301 302 305 304
Wind_Speed
5 4 5 4 4 3 4 3 4 3 0 3 4 3 3 5 5 3 2 10 12 11 11 11 9 9 9 6 3 4 5 5 5 7 7 11 14 17 18 16 16 17 15
5 4 4 5 4 4 3 3 4 3 1 1 2 4 5 5 4 5 4 5 11 13 14 12 11 11 11 8 7 8 9 8 8 5 6 8 12 12 15 17 16 17 17
6 6 4 4 4 4 5 3 2 2 1 1 1 2 2 3 4 5 5 4 6 8 10 13 12 13 13 12 11 10 11 9 13 10 6 8 8 9 14 15 18 17 17
7 6 4 4 4 2 2 3 2 2 2 1 1 3 4 5 6 6 5 5 4 3 7 11 11 13 14 13 13 12 15 9 13 11 12 14 11 8 8 12 18 19 18
8 6 4 3 4 1 0 2 1 1 1 2 2 3 4 3 3 4 6 6 6 5 3 7 9 12 11 14 16 14 14 11 11 11 10 15 12 11 13 10 17 19 17
9 6 5 6 4 3 2 2 2 1 2 1 3 4 4 3 3 4 5 4 5 6 5 5 5 6 10 10 11 10 11 12 12 12 10 12 12 13 13 13 14 18 16
9 7 3 2 3 2 4 2 3 2 3 3 3 4 4 4 2 4 4 4 5 5 6 5 4 3 4 9 10 11 13 15 15 12 13 17 18 16 14 15 15 15 18
7 7 9 3 4 1 1 4 3 2 2 3 3 2 4 5 4 3 3 4 4 3 4 5 5 5 4 3 6 9 12 13 14 15 15 15 18 18 18 16 15 14 17
8 9 8 5 5 2 3 3 4 4 2 2 1 4 1 3 3 3 4 1 4 2 3 4 5 5 6 4 5 7 11 14 17 19 18 15 20 19 18 18 16 15 15
7 7 9 8 7 4 5 4 4 3 4 2 1 1 1 3 3 4 4 5 3 3 3 3 4 4 5 5 9 10 9 12 15 18 19 19 22 22 23 18 18 16 15
7 6 4 7 6 5 5 6 4 5 3 3 2 1 1 1 1 3 4 4 4 4 3 3 3 4 6 5 5 8 13 13 11 14 17 20 22 24 23 21 19 17 15
1 2 5 4 6 6 6 5 5 5 4 3 2 3 3 3 4 4 4 6 5 3 4 4 4 5 5 5 8 15 16 17 17 12 12 16 21 21 22 23 21 19 19
1 5 5 5 4 5 6 6 5 4 4 3 4 4 4 5 3 3 2 5 4 2 4 4 5 5 5 4 6 16 19 17 15 15 14 15 18 20 21 20 20 19 19
5 5 5 6 6 6 5 5 3 3 4 4 6 5 4 5 6 6 4 3 7 3 3 7 4 5 3 4 9 18 6 15 16 15 14 15 17 19 20 19 18 17 17
3 6 6 6 5 5 6 5 3 5 4 4 6 5 4 7 5 5 5 5 5 7 6 3 3 3 3 4 8 6 6 12 17 16 13 14 16 18 17 17 17 17 18
5 6 6 5 4 3 4 4 3 4 4 5 5 6 5 6 5 5 4 5 4 4 4 3 5 4 4 4 8 7 6 16 15 12 12 15 16 17 16 16 17 18 20
7 6 6 4 3 3 3 3 6 6 5 6 5 6 8 5 4 4 4 3 3 4 6 5 3 3 3 5 6 5 6 7 6 11 12 14 15 17 15 16 16 17 18
4 6 5 4 3 3 2 3 5 4 5 6 8 4 6 4 5 5 3 6 4 5 3 9 4 3 5 4 5 6 6 5 4 10 16 16 16 16 14 16 14 15 14
5 4 4 2 1 2 3 4 5 5 6 7 6 6 6 5 7 5 5 5 4 4 4 4 6 4 4 3 3 4 5 5 4 13 16 15 15 16 18 16 15 14 14
4 3 2 2 2 2 3 4 5 5 5 7 6 6 5 5 7 6 6 6 6 4 3 4 7 9 6 4 3 5 4 3 6 7 10 11 14 16 15 17 15 16 14
2 2 1 2 2 3 3 4 5 6 7 5 5 4 5 8 10 8 4 5 4 5 6 6 7 8 5 3 4 2 3 4 6 4 3 6 6 6 7 10 11 12 11
2 2 3 3 4 3 6 9 7 6 4 3 4 5 6 9 8 14 16 16 15 11 10 6 5 4 6 7 4 3 2 2 3 1 3 9 4 5 5 4 8 7 6
2 3 3 4 5 6 9 9 8 4 5 5 5 5 7 6 8 6 9 12 11 14 11 4 3 4 6 4 3 3 3 2 4 5 1 6 2 3 3 4 8 9 8
2 2 3 4 5 6 10 12 13 6 6 5 5 5 6 7 4 9 7 8 8 8 7 6 7 8 8 6 6 2 2 2 3 5 4 3 2 4 3 3 6 8 7
1 3 3 6 7 6 12 11 7 5 4 5 5 6 5 6 10 12 7 8 9 8 9 13 13 12 10 11 9 3 2 1 3 2 2 2 2 4 2 3 3 5 7
4 3 7 7 9 6 10 11 9 4 7 7 6 6 11 9 12 12 6 7 7 6 7 8 6 7 5 1 3 4 1 3 2 2 1 2 2 2 4 2 2 3 4
Wind_Direction
217 217 233 221 215 185 201 218 213 187 90 358 355 334 352 353 350 355 330 320 314 279 253 245 225 229 227 213 221 262 286 282 314 321 324 328 324 318 315 314 312 308 297
209 213 233 225 211 196 193 174 174 154 95 26 42 10 356 358 339 328 308 308 301 287 267 260 236 238 243 242 240 249 260 262 284 286 284 297 306 318 316 302 308 312 301
197 204 218 220 194 168 148 148 121 93 115 140 22 321 349 339 332 324 312 292 298 306 298 255 243 240 245 251 252 266 277 255 264 297 287 266 306 309 318 314 309 317 307
187 196 197 205 144 105 149 132 136 174 167 128 330 351 354 351 348 344 340 342 327 308 318 314 260 255 249 262 267 271 283 265 261 283 282 283 296 290 305 324 306 303 314
181 171 165 140 117 119 228 178 155 130 68 352 337 337 330 320 337 346 350 359 357 10 336 313 308 307 284 276 278 280 290 282 286 281 311 303 287 271 289 312 315 297 308
172 152 163 141 131 170 160 285 129 92 111 61 336 330 308 342 322 337 358 351 11 28 35 37 27 6 5 344 335 318 312 308 306 308 314 304 296 274 281 296 310 305 307
154 152 119 103 120 168 175 173 114 105 62 43 31 343 331 19 33 9 5 6 26 21 22 33 33 35 354 352 342 326 316 309 308 316 315 315 293 281 275 289 300 302 306
121 97 102 198 218 220 162 101 93 95 84 42 102 93 5 332 338 357 12 13 5 358 17 19 13 349 325 297 293 305 304 308 311 309 314 321 309 304 282 285 299 295 303
144 135 168 145 164 243 182 126 132 124 115 41 74 140 43 251 327 323 335 310 346 335 330 346 335 339 325 305 289 287 295 307 313 316 309 299 299 298 293 285 292 291 293
127 155 162 150 143 176 153 128 137 122 107 173 27 57 110 158 192 326 323 315 320 264 278 291 301 312 316 279 275 272 278 298 308 313 312 312 307 303 301 289 288 288 289
131 158 151 153 151 163 131 139 129 112 141 151 171 154 176 254 232 167 258 292 313 280 268 282 272 281 289 281 265 276 282 296 303 312 313 310 305 302 297 295 287 280 275
76 97 148 169 152 131 146 139 117 149 171 151 167 188 194 197 221 200 225 250 240 267 241 252 256 264 275 276 260 266 301 291 302 298 293 304 303 299 294 290 284 280 279
135 181 149 142 141 152 133 128 152 183 173 181 190 212 208 227 231 227 248 276 252 273 268 241 251 251 269 280 274 286 291 298 299 304 288 304 297 299 297 290 287 281 284
174 158 145 159 148 135 132 156 179 202 196 221 239 226 249 245 232 228 214 228 280 267 262 246 243 241 246 268 277 297 302 298 307 290 293 296 301 296 290 291 289 288 285
154 147 157 148 157 155 167 178 203 232 219 242 247 248 236 260 254 237 233 211 238 286 279 265 269 236 249 274 275 281 285 289 299 289 288 303 301 294 292 292 290 285 283
130 141 148 162 159 183 203 187 238 249 236 256 243 249 263 259 255 251 238 238 217 231 265 224 248 247 262 286 287 299 293 301 296 291 286 306 301 301 292 287 284 280 273
131 142 159 154 182 223 237 229 257 264 248 264 267 240 260 253 252 266 268 262 245 197 254 270 226 246 262 264 282 287 291 289 282 286 291 303 300 301 292 284 287 283 276
134 146 153 167 213 240 253 241 260 270 252 256 254 249 241 244 271 270 278 265 241 250 234 275 283 267 242 251 256 283 287 285 285 297 298 303 300 299 295 284 279 286 273
143 144 146 175 254 275 266 251 243 263 259 253 255 240 250 248 259 257 247 256 256 264 246 254 286 286 255 253 282 268 270 285 278 296 299 301 304 296 297 291 284 278 273
138 132 140 197 225 255 276 296 288 268 246 249 253 248 267 268 266 272 265 253 254 243 246 248 294 296 271 254 230 264 282 263 295 293 298 300 301 298 301 292 285 281 271
124 130 185 260 279 297 291 308 297 268 260 274 278 333 324 308 316 313 285 267 269 262 263 269 280 279 259 247 233 235 262 294 298 292 311 304 297 292 283 288 291 289 288
158 168 215 262 306 319 322 301 300 290 309 358 2 347 330 319 316 319 319 317 304 293 278 249 260 292 308 278 231 222 241 295 318 111 342 307 282 290 294 298 332 1 346
154 212 277 358 346 323 314 333 340 44 57 31 2 334 319 321 349 10 348 334 327 325 324 305 262 274 287 327 297 215 224 229 267 287 2 287 272 289 293 320 322 349 337
219 323 3 21 359 14 29 53 55 46 29 351 321 310 308 315 27 346 320 311 309 305 292 284 271 267 252 256 279 217 228 262 268 272 186 264 308 305 324 302 310 341 339
345 26 34 26 76 49 44 44 39 16 335 333 340 325 333 340 327 340 330 316 308 302 308 307 303 302 289 268 243 185 223 270 289 276 258 267 303 307 286 289 303 335 344
57 60 65 68 79 60 36 33 27 5 352 334 319 334 333 336 332 331 327 313 311 319 314 299 293 298 282 209 202 202 195 270 257 285 213 355 313 351 324 281 301 354 345